FENGYUN 1C DEB

Satellite information

Favourite Embed

Satellite Type and Status

DEBRISIN ORBIT

Key statistics

Satellite FENGYUN 1C DEB at a glance.

Uptime

9715

Days in orbit

Revolutions

≈ 14.2

Per day

Orbit

SSO

Sun Synchronous Orbit

Inclination

98.7

Latest

Satellite identification and parameters

Extended collection of information and parameters for FENGYUN 1C DEB.

Object identification

Identified? True

Debris? True

Object name: FENGYUN 1C DEB

International designator: 1999-025AKF

Object number (NORAD): 30541

Object ID (CCSDS): 30541

Country: PEOPLES REPUBLIC OF CHINA (PRC)

Current information (Y/N): Y

RCS size: SMALL

Orbital parameters

Period: 101.191 minutes

Inclination: 98.6945 deg

SMA: 7193.203 km

Apoapsis: 828.274 km

Periapsis: 801.863 km

RAAN: 32.6494 deg

Eccentricy: 0.00183582

Argument of periapsis: 87.7988 deg

Mean anomaly: 272.5292 deg

Mean motion: 14.23046996 rev/day

Mean motion (dot): 0.00003891 rev/day2

B* drag term: 0.0017417113 1/REarth

Two-line elements (TLE)

Creation date: Dec. 12, 2025, 10:14 a.m.

Reference frame: TEME

Reference center: EARTH

Epoch: Dec. 12, 2025, 2:23 a.m. UTC

TLE line 0: 0 FENGYUN 1C DEB

TLE line 1: 1 30541U 99025AKF 25346.09973593 .00003891 00000-0 17417-2 0 9996

TLE line 2: 2 30541 98.6945 32.6494 0018358 87.7988 272.5292 14.23046996973187

Live tracking on map

Real-time ground track for satellite FENGYUN 1C DEB.

In-orbit conjunctions

A list of the most updated potential collisions computed for object FENGYUN 1C DEB.

Target Orbit TCA Probability of collision Miss distance Type
SL-12 R/B(AUX MOTOR) LEO 2025-11-07 04:45:24 0.0002126271 69.0 (m) ROCKET BODY
FENGYUN 1C DEB SSO 2025-08-24 08:48:34 0.0001089026 161.0 (m) DEBRIS
CZ-4B DEB SSO 2025-07-03 09:56:23 0.0001222227 857.0 (m) DEBRIS
METEOR 2-8 DEB LEO 2025-02-26 17:03:23 0.0001386045 30.0 (m) DEBRIS
COSMOS 1275 DEB LEO 2025-01-05 11:55:21 0.0001352377 115.0 (m) DEBRIS

Associated space launch

Chinese polar orbiting meteorological satellite

FENGYUN 1C DEB was lifted into orbit during the mission ‘Long March 4B | Feng Yun 1C’, on board a Long March 4B space rocket.

The launch took place on May 10, 1999, 1:33 a.m. from Launch Complex 7.

For more information about the launch, click the button.

Launch to space Long March 4B | Feng Yun 1C
Long March 4B | Feng Yun 1C

Agency: N/A

Status: Launch Successful

Launch date: May 10, 1999, 1:33 a.m. UTC

Rocket: Long March 4B

Launch pad: Launch Complex 7

Location: Taiyuan Satellite Launch Center, People's Republic of China

...

Latest news about this satellite

There are no fresh news available about this satellite. Check back as we update our databases every day.


Newsletter sign-up

Weekly statistics, charts and insights to help you stay on top of the space industry.